Regional Weather Roundup
Issued by NWS Charleston, WV

Home | Current Version | Previous Version | Graphics & Text | Print | Product List | Glossary On
Versions: 1 2 3 4 5 6 7 8 9 10 11 12 13 14 15 16 17 18 19 20 21 22 23 24 25 26 27
000
ASUS41 KRLX 240610
RWRRLX
West Virginia Regional Weather Roundup
National Weather Service Charleston WV
200 AM EDT THU APR 24 2014

Note: "fair" indicates few or no clouds below 12,000 feet with no
significant weather and/or obstructions to visibility.

WVZ003-240700-
Northern Panhandle of West Virginia

CITY           SKY/WX    TMP DP  RH WIND       PRES   REMARKS
WHEELING         N/A     37  22  54 NW3       30.10F
$$

WVZ009-240700-
Northwest West Virginia

CITY           SKY/WX    TMP DP  RH WIND       PRES   REMARKS
PARKERSBURG      N/A     41  29  62 NE6       30.14R
$$

WVZ006-240700-
Western West Virginia

CITY           SKY/WX    TMP DP  RH WIND       PRES   REMARKS
HUNTINGTON       N/A     47  32  56 NE6       30.08S
$$

WVZ015-240700-
West Central West Virginia

CITY           SKY/WX    TMP DP  RH WIND       PRES   REMARKS
CHARLESTON       N/A     44  34  67 NE6       30.08S
$$

WVZ031-240700-
North Central West Virginia

CITY           SKY/WX    TMP DP  RH WIND       PRES   REMARKS
CLARKSBURG       N/A     38  29  70 CALM      30.09F
MORGANTOWN       N/A     39  25  57 CALM      30.10S
$$

WVZ035-042-045-240700-
South Central West Virginia

CITY           SKY/WX    TMP DP  RH WIND       PRES   REMARKS
BECKLEY          N/A     41  28  60 CALM      30.06S
BLUEFIELD        N/A     46  27  47 CALM      30.05F
LEWISBURG        N/A     38  27  64 CALM      30.05S
$$

WVZ047-240700-
Northern Mountains of West Virginia

CITY           SKY/WX    TMP DP  RH WIND       PRES   REMARKS
ELKINS           N/A     30  27  88 CALM      30.08S
$$

WVZ052-240700-
Eastern Panhandle of West Virginia

CITY           SKY/WX    TMP DP  RH WIND       PRES   REMARKS
MARTINSBURG      N/A     45  22  40 NW12      30.03S
PETERSBURG       N/A     46  34  62 N6        30.07F
$$



USA.gov is the U.S. government's official web portal to all federal, state and local government web resources and services.